Simultaneous Nadir Overpasses (SNOs) Predictions

Prediction of SNOs between AQUA and NOAA-19 Satellite Orbit:

Table of predicted SNOs for the next 14.0 days since TLE Epoch: 12/13/2019
Index Date (AQUA) Time (AQUA) Lat,Lon (AQUA) SZA (AQUA ) Date (NOAA-19) Time (NOAA-19) Lat,Lon (NOAA-19) SZA (NOAA-19 ) Distance(km) Time Diff (sec)
1 12/14/2019 20:48:11 80.10,-163.53 104.54 12/14/2019 20:47:45 80.11,-163.41 104.55 2.50 26
2 12/14/2019 21:37:37 -80.11, 4.01 75.45 12/14/2019 21:38:42 -80.11, 3.97 75.46 1.04 65
3 12/17/2019 02:21:55 -80.11, -67.05 75.32 12/17/2019 02:21:04 -80.09, -66.92 75.33 3.38 51
4 12/17/2019 03:11:22 80.09, 100.70 104.67 12/17/2019 03:12:07 80.10, 100.55 104.67 3.06 45
5 12/19/2019 07:55:39 80.10, 29.61 104.76 12/19/2019 07:54:28 80.08, 29.77 104.76 3.31 71
6 12/19/2019 08:45:05 -80.11,-162.83 75.23 12/19/2019 08:45:24 -80.10,-162.78 75.25 1.36 19
7 12/21/2019 14:18:50 80.10, -66.20 104.82 12/21/2019 14:18:50 80.08, -66.32 104.81 3.27 0
8 12/23/2019 19:52:33 -80.08, 30.54 75.21 12/23/2019 19:52:07 -80.08, 30.43 75.19 2.10 26
9 12/23/2019 20:42:01 80.10,-162.03 104.84 12/23/2019 20:43:11 80.09,-162.11 104.81 1.90 70
10 12/26/2019 01:26:18 80.08, 127.10 104.77 12/26/2019 01:25:33 80.07, 127.03 104.79 1.90 45




NCC Satellite Simultaneous Nadir Overpasses (SNOs) Prediction Service
